Simultaneous Nadir Overpasses (SNOs) Predictions

Prediction of SNOs between NOAA-15 and METOP-C Satellite Orbit:

Table of predicted SNOs for the next 14.0 days since TLE Epoch: 11/2/2024
Index Date (NOAA-15) Time (NOAA-15) Lat,Lon (NOAA-15) SZA (NOAA-15 ) Date (METOP-C) Time (METOP-C) Lat,Lon (METOP-C) SZA (METOP-C ) Distance(km) Time Diff (sec)
1 11/05/2024 11:10:24 -81.03,-129.78 80.89 11/05/2024 11:09:18 -81.03,-129.63 80.90 2.68 66
2 11/05/2024 12:00:53 81.03, 37.73 99.14 11/05/2024 11:59:58 81.04, 37.76 99.12 1.05 55
3 11/05/2024 12:51:23 -81.03,-155.01 80.87 11/05/2024 12:50:40 -81.03,-155.14 80.90 2.38 43
4 11/05/2024 13:41:53 81.04, 12.14 99.14 11/05/2024 13:41:20 81.03, 12.25 99.12 2.52 33
5 11/05/2024 14:32:22 -81.03, 179.77 80.84 11/05/2024 14:32:01 -81.03, 179.72 80.85 0.87 21
6 11/05/2024 15:22:52 81.04, -13.08 99.16 11/05/2024 15:22:41 81.04, -12.89 99.17 3.23 11
7 11/05/2024 16:13:21 -81.03, 154.55 80.82 11/05/2024 16:13:22 -81.04, 154.58 80.81 1.47 1
8 11/05/2024 17:03:51 81.04, -38.29 99.18 11/05/2024 17:04:03 81.03, -38.40 99.17 2.31 12
9 11/05/2024 17:54:21 -81.05, 128.96 80.82 11/05/2024 17:54:44 -81.04, 129.07 80.81 2.42 23
10 11/05/2024 18:44:50 81.04, -63.51 99.20 11/05/2024 18:45:24 81.04, -63.54 99.21 0.60 34
11 11/05/2024 19:35:19 -81.03, 104.10 80.78 11/05/2024 19:36:05 -81.04, 103.93 80.76 3.33 46
12 11/05/2024 20:25:49 81.04, -88.73 99.23 11/05/2024 20:26:45 81.05, -88.68 99.26 1.14 56
13 11/05/2024 21:16:19 -81.05, 78.51 80.78 11/05/2024 21:17:27 -81.04, 78.42 80.76 1.78 68



Historial Predications of SNOs between NOAA-15 and METOP-C
